Regional Weather Roundup
Issued by NWS

Home | Current Version | Previous Version | Text Only | Print | Product List | Glossary Off
Versions: 1 2 3 4 5 6 7 8 9 10 11 12 13 14 15 16 17 18 19 20 21 22 23 24 25 26 27 28 29 30 31 32 33 34 35 36 37 38 39 40 41 42 43 44 45 46 47 48 49 50

000
ASUS43 KFSD 052302
RWRSD

WEATHER ROUNDUP FOR SOUTH DAKOTA
NATIONAL WEATHER SERVICE SIOUX FALLS SD
600 PM CDT TUE MAY 05 2015

NOTE: "FAIR" INDICATES FEW OR NO CLOUDS BELOW 12,000 FEET WITH NO
SIGNIFICANT WEATHER AND/OR OBSTRUCTIONS TO VISIBILITY.


SDZ001>005-009-010-012>017-060000-
NORTHWEST AND NORTH CENTRAL SOUTH DAKOTA

CITY           SKY/WX    TMP DP  RH WIND       PRES   REMARKS
BUFFALO          N/A     67  49  52 SE28G33   29.74F
FAITH            N/A     66  51  58 S21       29.85F
MOBRIDGE       MOSUNNY   74  48  39 S16       29.86F
$$

SDZ012>016-024>037-041>051-057-063-072>074-060000-
SOUTHWEST AND SOUTH CENTRAL SOUTH DAKOTA

CITY           SKY/WX    TMP DP  RH WIND       PRES   REMARKS
RAPID CTY ARPT CLOUDY    65  50  58 S17       29.85F
PIERRE         LGT RAIN  61  56  83 SE14      29.90F
CUSTER         CLOUDY    53  46  77 S7        29.91F
ELLSWORTH AFB  PTSUNNY   64  51  63 S18       29.84F
PHILIP         CLOUDY    68  53  58 S17G23    29.86F
PINE RIDGE     CLOUDY    63  49  60 SE15      29.88F
WINNER         MOCLDY    63  57  81 SE12      29.93F
$$

SDZ004>011-016>023-039-040-060000-
NORTHEAST SOUTH DAKOTA

CITY           SKY/WX    TMP DP  RH WIND       PRES   REMARKS
ABERDEEN       CLOUDY    75  50  41 S20       29.92F
WATERTOWN      CLOUDY    67  55  65 SE16G23   29.99F
BROOKINGS      CLOUDY    63  57  82 SE13G20   30.02F
SISSETON         N/A     72  55  55 S23       29.97S
$$

SDZ017-020-022-023-036>040-048>070-060000-
SOUTHEAST SOUTH DAKOTA

CITY           SKY/WX    TMP DP  RH WIND       PRES   REMARKS
SIOUX FALLS    CLOUDY    68  57  68 SE10      29.99F
HURON          CLOUDY    66  56  70 S10G22    29.96S
MITCHELL       CLOUDY    64  60  87 SE10      29.97F
YANKTON        CLOUDY    72  61  68 E7        29.94F
$$

ABBREVIATIONS USED IN REMARKS
   TC - TEMPERATURE IN CELSIUS
  WCI - WIND CHILL INDEX
   HX - HEAT INDEX
  VSB - VISIBILITY



USA.gov is the U.S. government's official web portal to all federal, state and local government web resources and services.